Wind_Speed
16 15 14 15 15 14 14 14 15 15 14 13 13 12 13 13 14 14 13 13 14 13 13 12 13 13 14 14 15 16 16 16 17 17 18 18 18 19 20 20 19 20 21
15 15 15 15 14 14 14 14 15 14 14 13 12 12 13 13 14 14 13 12 13 13 12 13 13 13 13 14 15 15 15 16 17 17 17 18 18 19 19 20 20 20 21
14 14 14 14 14 14 14 14 15 14 14 14 14 14 14 14 14 14 14 14 14 14 13 13 13 13 14 15 15 16 16 16 16 16 17 17 17 17 18 19 20 20 21
12 13 13 13 13 14 14 14 15 14 13 13 13 14 14 14 14 14 15 14 14 15 14 14 14 15 16 16 16 16 16 16 17 16 16 17 17 17 18 19 20 20 20
11 11 12 12 13 14 14 14 14 13 13 12 13 13 14 14 14 14 15 15 15 15 15 15 15 16 16 16 16 16 16 16 16 16 16 16 17 18 19 19 20 20 20
12 12 12 12 13 13 13 13 12 13 13 13 13 13 13 13 14 14 15 16 16 16 15 16 16 17 17 17 17 16 16 16 16 16 15 15 16 17 18 19 20 20 20
13 13 12 13 13 12 12 12 12 13 13 13 13 13 13 14 14 15 15 16 16 16 17 17 17 18 18 18 17 17 16 16 16 15 15 16 16 17 18 19 20 19 20
13 13 13 13 13 12 12 12 12 13 13 13 13 14 14 14 14 14 14 15 15 16 16 17 17 18 18 18 17 17 17 16 16 16 16 16 17 17 18 18 18 19 20
14 14 15 13 12 12 11 12 13 13 13 13 14 14 14 14 14 14 14 15 15 16 16 17 17 18 18 18 17 17 17 17 16 16 16 17 17 17 17 18 18 19 20
16 15 15 15 14 13 13 13 13 13 13 14 14 14 14 14 15 15 15 15 16 16 16 16 16 17 18 18 17 16 17 17 18 18 18 18 18 18 18 19 19 19 20
17 17 17 17 15 15 15 15 14 13 14 15 14 14 14 15 15 16 15 16 15 16 16 16 16 17 18 18 18 17 18 18 18 18 18 18 18 19 19 19 19 19 20
18 18 18 18 17 17 16 15 15 14 15 15 15 16 16 16 16 15 15 16 15 16 16 16 16 17 18 18 18 18 18 17 17 17 17 17 18 18 19 18 18 18 18
18 18 19 19 18 17 16 15 15 15 16 16 16 16 16 16 16 15 16 16 16 17 17 17 17 17 17 18 18 18 17 16 16 15 15 15 16 17 17 17 17 17 17
19 19 19 18 18 18 18 17 16 16 16 16 16 15 16 16 16 16 17 17 17 17 18 18 18 17 17 17 17 16 15 13 13 13 13 14 15 16 16 16 16 16 17
19 19 19 18 19 20 19 19 16 16 16 16 16 16 17 16 16 17 18 18 18 19 19 19 18 17 17 17 16 14 13 13 12 13 13 12 13 14 15 15 15 15 15
19 19 18 19 19 20 20 19 18 17 17 17 18 18 18 17 17 18 18 18 19 19 19 18 18 18 17 16 15 14 13 13 12 12 12 12 12 12 13 14 15 15 15
20 19 19 19 19 19 20 19 19 19 19 20 19 19 18 18 19 19 19 19 19 19 19 19 18 18 17 16 15 14 13 13 12 12 11 12 12 12 12 13 14 15 15
20 20 19 19 19 19 20 19 20 20 20 19 19 19 19 19 19 19 19 20 20 19 19 19 19 18 17 15 15 14 13 13 12 12 13 12 12 12 13 13 13 14 15
22 21 19 20 21 21 21 21 21 20 20 20 20 20 20 19 19 19 20 20 20 20 19 19 19 18 16 16 14 13 13 13 13 13 13 12 12 12 12 12 13 13 13
21 21 20 21 21 22 21 21 21 21 21 21 20 20 20 20 20 20 20 20 20 20 19 19 18 17 16 16 15 14 13 13 13 13 13 13 13 13 13 13 13 13 13
22 21 22 22 22 21 21 21 22 22 22 21 21 20 21 21 20 20 19 20 19 19 19 18 18 17 16 15 15 14 13 14 14 14 13 13 13 13 13 12 12 12 12
24 24 24 23 23 22 22 22 22 22 22 22 22 21 21 21 21 20 20 19 19 19 19 18 18 17 17 16 15 14 14 14 15 14 14 13 13 12 13 13 12 12 12
25 24 25 25 24 24 23 23 23 22 22 22 22 21 22 21 21 21 21 20 20 20 20 19 18 18 18 16 16 15 15 15 15 14 14 13 13 13 13 13 13 12 12
27 26 25 25 25 24 24 23 24 24 23 23 23 22 21 21 21 21 21 20 20 20 20 19 18 18 17 16 16 16 16 15 15 15 14 14 14 13 13 13 13 13 12
25 25 25 25 25 24 24 24 24 23 23 23 23 22 22 22 21 22 21 21 21 21 20 19 19 18 18 17 16 16 17 17 16 16 16 15 15 14 14 14 14 13 13
24 24 24 24 24 23 23 23 22 23 23 22 22 22 22 22 23 22 21 20 20 20 19 19 19 19 18 18 18 18 18 17 17 17 17 17 16 16 16 15 14 14 14
Wind_Direction
291 288 283 281 285 289 289 290 294 296 297 299 302 302 304 307 310 311 311 311 309 305 301 295 289 288 287 283 281 279 274 273 270 266 263 261 261 264 262 260 260 260 259
291 288 287 286 288 290 289 291 294 297 297 295 297 297 299 304 308 308 306 308 311 307 301 297 293 293 293 289 285 282 279 276 273 269 264 264 265 266 260 259 259 260 260
286 290 290 288 289 290 293 297 298 300 301 299 295 295 297 300 303 304 305 304 307 304 303 304 301 298 294 292 289 284 283 279 274 271 268 266 265 264 263 261 260 260 259
287 293 293 289 289 290 292 294 297 297 299 300 296 294 293 296 298 299 300 301 301 301 301 300 300 297 295 293 291 287 284 280 277 271 268 268 267 266 264 263 262 260 259
287 287 289 291 290 290 290 290 293 296 297 299 304 296 294 294 295 297 300 302 301 299 296 295 297 297 296 295 292 288 283 279 277 273 270 268 267 265 264 263 262 260 259
277 280 283 285 289 292 289 288 292 297 297 299 302 301 297 297 297 299 301 302 300 299 296 294 295 296 296 294 293 288 284 279 276 273 271 272 269 267 264 264 263 261 261
275 277 275 277 282 286 288 289 293 296 299 300 299 302 300 301 299 298 300 301 301 300 300 296 296 296 297 295 291 287 285 280 275 272 273 275 274 271 268 269 267 265 264
273 276 275 276 276 276 281 287 294 295 297 298 297 296 299 301 301 300 299 299 301 302 300 297 296 297 296 294 291 287 285 282 278 275 274 276 277 276 274 273 271 269 268
275 281 280 274 273 270 273 284 292 295 297 300 298 294 297 298 299 300 300 300 301 302 301 299 297 298 296 295 292 288 285 283 281 278 274 275 277 277 277 276 275 275 273
272 275 277 276 275 271 275 282 289 293 296 299 301 296 296 297 298 299 301 302 302 303 303 301 301 300 298 297 295 292 286 281 279 279 277 275 275 277 276 277 277 277 274
267 269 271 276 275 278 281 284 287 292 294 296 297 297 295 297 300 300 301 303 304 305 305 303 301 300 298 296 292 292 288 283 281 278 276 276 275 276 277 277 277 277 277
263 268 270 273 277 279 279 280 284 290 292 294 294 294 295 298 300 301 301 303 305 306 307 306 305 305 303 299 295 294 291 287 284 280 277 275 276 275 277 278 277 278 278
263 265 267 270 274 279 279 282 287 289 290 294 295 294 293 294 295 297 300 303 305 307 307 306 307 305 305 303 301 296 293 292 289 285 280 277 276 276 277 277 277 277 278
264 266 267 268 271 272 278 284 286 286 288 290 293 294 295 293 293 295 298 302 304 304 305 305 306 305 305 304 303 299 294 293 292 291 287 284 279 276 277 276 275 277 279
264 266 267 267 267 269 275 281 283 283 284 286 289 291 294 296 295 295 296 298 300 302 305 306 304 305 304 302 300 294 292 290 291 291 288 288 286 280 279 278 276 278 281
263 264 267 267 266 268 272 279 280 280 280 282 285 287 288 292 294 294 297 297 298 300 303 306 306 304 303 301 298 291 288 288 288 289 288 289 287 286 285 280 279 279 280
264 262 265 268 267 268 274 278 279 280 280 280 282 283 284 287 290 293 295 295 297 298 300 303 306 304 300 297 298 293 288 283 282 284 286 289 288 288 290 290 287 284 282
261 263 263 266 268 269 274 276 277 278 279 280 282 285 285 287 291 293 294 294 294 296 296 299 301 303 302 298 294 289 285 282 280 280 284 287 287 290 288 288 291 291 290
263 264 265 269 270 271 273 273 273 275 276 277 280 284 287 288 290 291 291 293 294 293 292 295 297 299 298 298 293 288 285 280 280 279 282 285 287 287 287 287 289 292 292
263 263 265 269 271 271 271 271 272 274 274 276 278 281 285 288 290 291 291 290 293 292 292 291 292 292 291 292 290 287 281 279 280 281 282 283 285 285 285 285 286 289 290
263 264 265 267 268 268 268 270 270 272 273 275 277 279 283 286 289 291 290 290 290 291 291 290 286 287 288 288 288 285 280 279 279 280 280 280 282 284 286 285 284 289 292
263 264 266 266 267 267 268 269 270 272 274 276 278 279 282 283 286 288 290 290 290 289 288 286 283 280 283 282 281 281 279 278 279 282 283 281 281 283 283 283 283 287 289
263 265 266 266 267 266 267 269 270 272 274 275 277 277 280 281 283 285 286 286 287 286 287 283 281 279 278 276 275 280 280 278 277 279 280 280 279 278 279 279 281 283 284
262 266 267 267 268 268 268 270 272 273 274 274 277 278 281 283 285 285 284 285 284 285 285 283 281 279 277 276 275 276 278 278 278 277 278 278 273 274 278 280 280 281 282
263 264 266 265 265 264 266 269 270 272 273 275 278 281 283 286 285 287 286 283 282 282 281 280 279 277 275 273 273 274 275 276 277 275 274 275 271 271 274 279 284 285 285
266 267 264 264 262 262 264 265 267 270 273 277 280 282 282 283 285 286 283 282 282 282 280 280 279 275 272 271 271 273 274 273 274 274 274 272 270 269 270 273 278 283 284
Height
5861 5859 5858 5858 5857 5857 5856 5855 5853 5852 5851 5849 5848 5847 5846 5844 5842 5840 5838 5836 5835 5833 5832 5831 5830 5829 5828 5827 5827 5826 5826 5825 5825 5825 5825 5825 5824 5825 5825 5825 5826 5826 5826
5857 5854 5854 5854 5853 5852 5852 5852 5850 5848 5847 5845 5845 5844 5842 5841 5839 5837 5834 5833 5832 5830 5829 5828 5826 5825 5824 5823 5822 5821 5821 5820 5820 5820 5819 5820 5820 5819 5819 5820 5820 5820 5821
5853 5852 5851 5850 5850 5849 5848 5848 5846 5845 5843 5842 5841 5840 5839 5837 5835 5833 5831 5830 5828 5827 5826 5824 5823 5821 5820 5819 5818 5817 5816 5815 5815 5815 5815 5815 5815 5815 5815 5814 5814 5815 5815
5850 5849 5848 5847 5846 5846 5845 5844 5843 5842 5840 5839 5837 5836 5835 5833 5832 5830 5828 5826 5825 5823 5822 5821 5819 5818 5816 5814 5813 5812 5811 5810 5810 5810 5809 5809 5809 5809 5809 5809 5809 5809 5809
5847 5846 5845 5844 5843 5842 5841 5841 5840 5838 5837 5836 5834 5833 5831 5830 5828 5826 5824 5823 5821 5819 5818 5816 5815 5813 5812 5810 5808 5806 5805 5805 5804 5804 5804 5804 5804 5803 5804 5804 5804 5804 5804
5843 5842 5841 5840 5838 5837 5837 5837 5836 5835 5834 5832 5831 5829 5828 5826 5824 5822 5821 5819 5817 5815 5813 5812 5810 5808 5807 5805 5803 5801 5800 5799 5799 5799 5798 5798 5798 5798 5798 5798 5798 5798 5798
5839 5838 5837 5836 5835 5834 5834 5833 5833 5832 5831 5829 5828 5826 5824 5823 5821 5819 5817 5815 5813 5811 5809 5807 5806 5804 5802 5800 5798 5796 5795 5794 5793 5793 5793 5793 5792 5792 5792 5792 5792 5792 5792
5834 5834 5833 5832 5832 5831 5831 5830 5829 5829 5827 5826 5824 5823 5821 5819 5817 5815 5813 5811 5809 5807 5805 5803 5801 5799 5797 5795 5793 5791 5790 5789 5788 5788 5788 5787 5787 5786 5786 5786 5785 5785 5785
5830 5830 5829 5828 5828 5828 5827 5827 5826 5825 5824 5822 5821 5819 5817 5815 5813 5811 5809 5807 5805 5803 5800 5798 5796 5793 5791 5789 5787 5786 5784 5783 5783 5782 5782 5782 5781 5780 5780 5779 5779 5779 5779
5825 5825 5825 5825 5825 5824 5824 5823 5822 5821 5819 5818 5816 5815 5813 5812 5810 5807 5805 5803 5801 5798 5796 5793 5791 5788 5786 5784 5782 5780 5778 5778 5777 5776 5776 5775 5775 5774 5774 5773 5773 5772 5771
5820 5820 5820 5820 5820 5819 5819 5819 5818 5817 5815 5814 5812 5811 5809 5808 5806 5804 5801 5799 5796 5794 5791 5789 5786 5783 5781 5778 5776 5774 5772 5771 5770 5770 5769 5769 5769 5768 5768 5767 5766 5765 5764
5815 5816 5816 5815 5815 5814 5814 5813 5813 5812 5811 5810 5808 5807 5805 5803 5801 5799 5797 5795 5792 5789 5787 5784 5781 5779 5776 5773 5770 5768 5766 5765 5764 5763 5763 5762 5762 5762 5761 5761 5760 5759 5758
5810 5811 5811 5811 5810 5809 5809 5808 5807 5806 5806 5805 5803 5802 5800 5798 5797 5795 5793 5790 5788 5785 5782 5780 5777 5774 5771 5768 5765 5762 5761 5759 5758 5757 5756 5756 5756 5756 5755 5755 5754 5753 5752
5805 5805 5805 5806 5806 5806 5805 5804 5803 5802 5801 5800 5799 5797 5796 5794 5792 5790 5788 5786 5783 5781 5778 5775 5772 5768 5765 5762 5759 5757 5755 5754 5753 5752 5751 5751 5750 5750 5749 5749 5748 5747 5747
5798 5799 5800 5800 5801 5801 5800 5800 5797 5797 5796 5795 5794 5793 5792 5790 5788 5786 5783 5781 5779 5776 5773 5770 5766 5763 5760 5757 5754 5752 5751 5750 5748 5748 5747 5746 5745 5745 5744 5743 5743 5742 5741
5793 5794 5795 5795 5795 5794 5794 5794 5793 5792 5791 5790 5789 5788 5787 5785 5783 5781 5779 5776 5774 5771 5768 5765 5762 5758 5755 5752 5750 5748 5747 5746 5745 5744 5743 5742 5742 5741 5740 5739 5738 5737 5736
5787 5788 5788 5789 5788 5788 5788 5788 5787 5787 5786 5785 5784 5782 5781 5779 5778 5776 5773 5771 5768 5766 5763 5760 5757 5753 5750 5748 5746 5744 5743 5742 5741 5740 5740 5739 5738 5737 5736 5735 5734 5732 5731
5780 5780 5781 5782 5782 5782 5782 5782 5781 5781 5780 5779 5778 5777 5775 5774 5772 5770 5768 5766 5763 5760 5758 5755 5752 5749 5746 5744 5742 5740 5739 5738 5737 5737 5736 5735 5735 5734 5732 5731 5730 5728 5727
5773 5774 5775 5776 5776 5775 5775 5775 5775 5775 5774 5773 5772 5771 5769 5768 5766 5764 5762 5760 5757 5754 5752 5750 5747 5745 5742 5740 5738 5736 5735 5735 5734 5733 5732 5731 5731 5730 5729 5728 5727 5725 5723
5767 5767 5768 5769 5769 5769 5769 5769 5769 5768 5768 5767 5766 5765 5763 5762 5760 5758 5756 5754 5751 5749 5746 5744 5742 5740 5738 5736 5734 5733 5732 5731 5731 5730 5729 5728 5727 5726 5725 5724 5723 5721 5720
5761 5761 5762 5762 5762 5763 5763 5762 5762 5762 5761 5760 5759 5758 5757 5756 5754 5752 5750 5748 5745 5743 5741 5739 5737 5735 5734 5732 5731 5729 5728 5727 5726 5726 5725 5724 5723 5722 5721 5720 5719 5718 5716
5754 5755 5755 5755 5755 5755 5755 5756 5756 5755 5755 5754 5753 5752 5750 5749 5747 5745 5743 5741 5739 5737 5735 5733 5732 5730 5729 5728 5726 5725 5724 5723 5722 5722 5721 5720 5719 5718 5717 5716 5715 5714 5713
5747 5747 5748 5748 5748 5748 5748 5748 5748 5748 5748 5747 5746 5745 5743 5742 5740 5739 5737 5735 5733 5731 5729 5728 5726 5725 5724 5723 5722 5721 5720 5719 5718 5717 5717 5716 5715 5714 5713 5712 5711 5710 5709
5740 5740 5740 5740 5741 5741 5741 5741 5741 5740 5740 5740 5739 5738 5736 5735 5734 5732 5730 5728 5726 5725 5723 5722 5721 5720 5719 5718 5717 5716 5715 5714 5713 5713 5712 5711 5711 5710 5710 5709 5707 5706 5705
5732 5732 5732 5732 5732 5733 5733 5733 5733 5733 5733 5732 5731 5730 5729 5728 5726 5725 5723 5721 5720 5718 5717 5716 5714 5714 5713 5712 5712 5711 5710 5709 5708 5707 5707 5707 5706 5706 5705 5705 5703 5702 5701
5724 5724 5724 5724 5724 5725 5725 5725 5725 5725 5725 5725 5724 5723 5722 5720 5719 5718 5716 5714 5713 5711 5710 5709 5708 5707 5707 5706 5706 5705 5704 5703 5703 5702 5702 5701 5701 5701 5700 5700 5699 5698 5697